Wind_Speed
27 27 28 28 28 28 28 28 28 28 28 28 28 28 26 26 25 24 23 23 22 21 21 20 19 19 19 19 20 20 20 20 20 18 17 17 16 15 15 14 14 13 13 13
27 27 28 27 27 27 27 27 27 27 28 27 27 27 25 25 24 23 23 22 21 20 19 19 18 18 18 18 18 18 18 17 16 16 16 16 16 16 15 14 12 12 12 12
27 27 28 27 28 28 27 26 26 26 27 27 27 25 24 24 23 22 21 21 20 18 18 18 17 17 16 16 16 16 16 16 16 16 15 15 15 15 13 12 12 12 11 11
28 28 29 28 28 27 27 26 26 26 26 25 26 24 23 22 22 21 20 20 19 18 17 17 16 16 16 16 16 16 15 15 15 14 14 13 14 13 12 11 12 11 11 11
28 29 29 28 27 27 27 27 25 25 25 25 25 23 21 21 21 20 19 20 19 18 17 17 16 16 16 17 17 15 14 13 13 13 12 13 12 11 11 11 11 11 11 12
27 28 28 28 28 28 28 27 26 25 25 24 24 23 22 21 20 19 19 19 19 17 17 16 16 16 16 15 15 14 13 12 12 12 12 11 10 10 10 10 11 11 11 12
27 28 29 29 28 28 27 26 26 25 24 24 23 23 22 21 20 19 18 18 17 17 16 15 15 15 14 14 13 13 12 11 11 11 11 10 10 10 10 10 11 11 11 12
28 29 29 29 29 27 26 26 25 24 24 23 23 22 20 19 18 17 16 15 15 14 13 13 13 13 13 12 12 12 11 11 10 10 9 9 9 9 9 10 11 11 12 12
28 28 29 28 28 28 26 25 25 24 24 23 22 21 19 17 15 15 13 13 13 13 12 11 11 11 11 11 11 11 10 10 9 8 8 8 8 8 8 10 10 10 11 11
28 28 28 27 27 27 26 25 25 23 22 22 20 18 17 16 14 14 12 12 11 11 11 10 9 10 9 9 9 9 9 8 8 7 7 8 8 8 9 9 9 10 10 11
29 28 28 27 26 26 26 25 24 22 20 19 18 16 15 14 13 12 11 10 9 9 9 9 8 8 8 8 7 7 7 7 7 6 6 7 8 8 9 9 10 10 11 11
29 28 27 25 24 24 24 23 22 20 18 17 16 15 14 13 11 10 9 8 8 8 8 7 7 7 7 7 6 6 6 6 6 6 6 7 7 8 8 9 9 10 11 11
29 28 26 24 23 22 22 20 19 19 18 16 14 12 11 11 10 9 8 7 7 7 7 6 6 6 5 5 5 5 5 5 5 5 5 6 7 7 7 9 10 11 11 12
28 26 24 23 22 22 20 19 18 17 16 14 12 11 10 9 8 8 7 7 7 6 6 6 5 5 4 4 4 3 4 4 4 4 5 5 7 7 8 9 10 11 12 12
27 25 23 22 21 21 19 17 16 16 14 13 11 11 10 9 8 7 7 7 6 6 5 5 4 4 3 3 3 3 3 3 4 4 5 6 7 8 8 9 11 12 12 13
25 24 22 21 20 20 18 16 16 14 13 12 11 10 9 9 8 7 7 6 6 6 5 4 3 3 2 3 2 2 3 4 4 5 6 7 8 9 9 10 11 12 13 14
24 23 22 21 19 18 17 17 15 13 12 11 10 10 9 8 8 7 7 6 6 5 5 4 3 2 2 2 2 2 3 3 4 5 6 7 8 10 10 11 12 13 15 16
23 22 21 20 18 17 16 15 14 12 12 11 10 10 9 8 7 7 6 6 6 5 4 4 3 2 2 1 1 2 3 4 5 6 7 7 8 10 10 11 13 14 15 16
23 21 20 19 18 17 16 15 13 13 12 11 10 10 9 8 8 7 7 6 5 5 4 3 2 2 2 1 1 2 3 4 5 6 7 8 9 10 11 12 13 15 16 17
22 21 20 19 18 17 16 14 13 12 12 11 10 10 9 8 8 7 6 5 4 3 3 2 2 2 2 1 1 2 3 4 6 7 8 9 10 11 12 13 14 15 16 17
22 21 19 18 18 17 16 15 14 12 12 11 10 10 9 8 7 7 6 5 4 4 3 3 2 2 1 1 2 2 3 4 6 7 8 9 10 12 13 14 15 15 16 17
21 20 19 18 17 17 15 14 13 12 11 11 10 10 9 8 7 7 7 6 5 4 3 3 2 1 1 1 1 2 3 4 6 8 9 9 10 12 13 14 15 16 17 18
19 18 18 18 17 16 15 14 12 11 11 11 11 10 9 8 8 8 7 7 6 5 4 3 2 1 1 1 1 2 3 5 6 8 9 10 11 12 13 15 16 17 18 19
18 17 17 17 16 15 14 13 12 12 12 11 11 10 10 9 9 8 7 7 7 6 5 3 2 2 1 1 2 3 4 5 7 8 9 10 11 12 14 15 16 17 18 19
18 17 16 16 15 14 13 13 13 13 13 12 11 11 10 10 10 9 8 7 7 7 6 4 3 2 2 2 3 4 4 6 7 8 9 11 12 12 14 15 16 18 19 20
18 17 16 16 16 14 14 14 14 14 14 13 12 12 11 10 10 9 8 8 7 7 6 4 3 2 2 3 3 4 5 5 7 8 9 10 12 13 14 15 17 18 20 21
18 17 16 16 16 15 15 15 15 16 15 15 14 13 12 11 10 9 9 8 7 7 5 4 3 2 2 3 4 4 4 5 6 7 9 11 12 14 15 16 18 19 21 22
Wind_Direction
306 306 305 305 305 304 303 302 301 300 299 300 301 300 301 301 302 301 299 299 300 302 302 302 302 300 298 299 302 305 307 307 305 301 301 300 300 302 302 302 302 303 304 300
308 308 306 306 307 306 305 303 301 301 300 301 300 300 300 300 299 299 298 298 299 300 302 302 302 302 301 302 303 307 308 312 310 308 304 303 303 304 304 303 303 305 306 304
309 308 308 308 309 309 308 307 304 303 301 300 300 302 302 300 299 299 297 298 298 299 299 299 301 302 304 306 306 308 311 311 312 311 308 305 305 307 306 307 305 304 304 300
309 310 309 310 311 312 309 308 306 304 301 300 301 302 302 301 301 299 298 298 299 299 299 300 302 302 305 309 309 311 314 314 312 311 306 305 307 307 306 304 303 302 301 299
310 310 309 309 311 312 311 310 309 307 305 304 304 303 303 302 302 300 298 299 298 298 297 297 299 301 303 307 308 309 311 312 313 310 306 303 302 304 306 307 309 306 304 304
310 310 311 312 313 313 312 311 311 309 308 307 305 304 302 302 302 300 299 298 296 297 297 296 297 299 302 306 308 307 308 312 314 312 309 307 306 307 310 310 312 317 314 314
309 309 310 312 312 311 310 311 311 309 308 305 303 304 303 302 301 299 297 297 297 299 299 298 299 302 303 304 306 306 305 309 314 314 314 315 317 315 314 315 318 319 321 326
308 309 310 310 310 309 306 306 309 308 307 306 304 303 301 300 300 299 297 297 299 302 302 301 301 304 305 305 306 307 304 306 311 315 317 320 324 321 317 320 320 319 319 322
307 307 307 309 308 306 305 305 309 309 306 305 305 302 299 298 298 299 296 300 302 304 304 304 304 306 307 307 307 307 303 303 307 317 321 323 327 327 325 327 325 325 327 327
303 304 305 306 306 305 304 306 310 310 307 307 304 301 300 296 296 297 296 299 302 304 308 305 304 308 310 312 313 311 306 305 308 318 326 333 333 334 333 334 335 335 336 334
303 304 305 303 303 305 305 305 309 310 308 306 304 302 299 296 294 293 293 295 299 303 309 307 304 310 315 317 320 318 314 312 313 319 330 339 337 341 341 340 340 340 338 336
304 304 304 305 304 304 304 305 306 307 307 306 302 298 294 292 288 288 289 289 293 297 304 310 315 315 315 316 324 323 316 316 317 322 329 338 339 345 348 347 347 344 342 340
303 303 304 305 303 304 303 302 303 305 303 301 300 296 290 286 284 286 289 288 290 294 301 307 313 314 313 318 328 330 330 332 329 334 332 333 339 345 350 347 344 341 339 337
300 300 300 301 300 302 300 297 300 301 298 296 295 292 287 280 280 283 284 285 286 293 300 305 313 316 318 330 340 341 341 345 346 353 350 344 344 344 347 344 343 340 339 338
296 296 297 298 298 299 297 295 299 301 297 293 290 285 283 278 276 278 280 281 281 289 299 303 310 317 333 348 357 4 7 6 2 5 1 353 349 347 348 344 342 342 340 338
293 292 294 295 294 295 293 293 296 297 293 290 285 278 273 271 270 272 273 274 276 281 286 287 299 317 333 342 354 7 10 13 14 15 7 358 352 348 348 344 342 341 341 340
291 288 289 288 287 288 289 288 289 288 286 281 277 271 264 265 267 267 266 267 271 274 274 279 292 306 327 344 0 6 14 15 9 4 358 354 350 347 347 344 343 343 342 342
286 284 284 280 281 285 286 284 282 278 275 274 269 263 257 257 258 255 257 264 269 277 275 272 280 288 301 324 360 13 6 358 355 356 354 348 346 344 344 343 342 343 343 342
283 281 278 276 278 279 280 280 276 271 268 265 262 255 249 246 245 250 256 261 266 272 264 255 261 286 291 307 342 355 354 355 358 360 354 349 347 346 346 346 345 344 342 342
280 277 274 272 274 276 276 275 272 268 262 259 254 246 241 238 241 247 249 246 243 237 229 231 244 274 289 284 322 341 349 356 359 360 357 353 350 348 348 348 346 345 345 345
277 273 270 269 272 273 270 269 268 263 257 252 241 231 231 230 231 233 228 221 215 211 219 231 239 253 271 284 310 335 348 355 357 356 353 349 348 347 348 347 346 346 346 346
273 268 264 264 266 266 264 263 262 255 246 236 226 222 222 221 220 216 211 209 208 210 216 222 224 230 260 282 294 319 337 348 352 351 348 347 347 348 349 348 347 347 347 347
269 262 258 259 259 259 257 255 251 243 230 219 215 215 214 214 211 206 204 204 206 206 205 204 206 219 240 274 314 329 337 345 347 346 346 346 345 347 348 348 348 348 348 347
263 258 255 253 252 251 248 244 240 230 218 211 211 211 212 211 203 198 201 206 206 204 203 202 209 224 252 303 325 330 337 344 346 344 343 344 345 346 346 347 348 348 348 348
258 255 253 248 243 239 235 231 227 218 211 207 207 208 207 205 202 203 207 207 205 204 205 208 215 236 280 307 316 325 333 340 342 342 343 346 347 347 348 349 350 351 351 350
252 249 243 238 234 230 225 220 215 210 206 203 206 206 202 199 200 201 203 204 204 204 205 209 219 252 295 310 314 321 332 341 344 345 346 348 349 349 349 349 350 350 349 349
241 234 231 229 224 220 215 212 210 208 204 203 204 202 199 199 200 201 201 201 202 202 204 212 229 259 293 307 313 323 333 340 343 345 347 350 350 349 348 347 347 347 347 348
Height
5820 5816 5812 5809 5806 5803 5800 5797 5794 5791 5788 5785 5782 5779 5777 5774 5772 5770 5767 5764 5762 5759 5757 5754 5752 5750 5748 5746 5744 5741 5738 5736 5733 5731 5729 5727 5725 5723 5721 5720 5718 5715 5713 5711
5814 5810 5806 5802 5799 5796 5793 5790 5787 5784 5781 5778 5775 5772 5770 5768 5765 5763 5761 5759 5757 5754 5752 5750 5747 5745 5743 5741 5739 5736 5734 5731 5729 5727 5725 5723 5721 5719 5717 5715 5714 5712 5710 5708
5807 5803 5799 5796 5793 5790 5786 5783 5780 5777 5774 5770 5768 5766 5764 5761 5759 5757 5755 5753 5751 5749 5747 5745 5743 5741 5739 5737 5735 5732 5730 5728 5726 5723 5721 5720 5718 5716 5714 5712 5711 5709 5707 5705
5800 5797 5793 5792 5786 5783 5779 5776 5773 5770 5767 5764 5761 5759 5757 5754 5752 5750 5748 5747 5745 5744 5742 5740 5739 5737 5735 5733 5731 5728 5727 5725 5723 5720 5718 5716 5714 5712 5711 5710 5708 5706 5704 5702
5793 5790 5787 5784 5780 5776 5772 5770 5767 5763 5760 5757 5755 5753 5751 5749 5746 5744 5743 5741 5740 5738 5737 5736 5734 5732 5731 5729 5727 5725 5723 5721 5719 5717 5715 5713 5711 5710 5708 5707 5705 5703 5701 5700
5787 5783 5780 5779 5774 5769 5767 5763 5760 5757 5754 5751 5748 5747 5746 5743 5741 5739 5737 5736 5734 5733 5732 5731 5729 5728 5726 5724 5722 5721 5719 5717 5715 5714 5712 5710 5709 5707 5706 5704 5702 5701 5699 5697
5781 5777 5774 5771 5767 5764 5762 5759 5754 5750 5748 5745 5743 5741 5740 5737 5735 5733 5732 5730 5729 5728 5727 5726 5724 5723 5721 5720 5718 5717 5716 5714 5712 5711 5709 5708 5706 5705 5703 5702 5700 5698 5697 5695
5775 5771 5769 5764 5761 5758 5755 5751 5748 5745 5742 5740 5737 5735 5733 5731 5729 5728 5727 5725 5724 5723 5722 5721 5720 5718 5717 5716 5715 5713 5712 5711 5710 5708 5707 5706 5704 5703 5701 5700 5698 5696 5695 5692
5769 5767 5762 5757 5754 5751 5748 5745 5742 5739 5737 5734 5732 5730 5728 5726 5725 5723 5722 5721 5720 5719 5718 5717 5716 5715 5714 5712 5711 5710 5709 5708 5707 5706 5705 5704 5702 5701 5699 5698 5696 5695 5693 5690
5761 5759 5755 5752 5748 5745 5742 5739 5736 5733 5731 5728 5726 5724 5723 5722 5721 5719 5718 5718 5717 5716 5715 5714 5713 5712 5710 5709 5708 5707 5706 5705 5705 5704 5703 5701 5700 5699 5698 5696 5695 5693 5691 5688
5754 5751 5748 5745 5741 5738 5735 5733 5730 5728 5725 5723 5720 5719 5718 5717 5717 5716 5715 5715 5714 5713 5713 5712 5710 5709 5708 5707 5706 5705 5704 5703 5702 5702 5701 5700 5699 5698 5696 5695 5693 5691 5689 5687
5747 5744 5740 5738 5735 5732 5729 5727 5725 5722 5720 5718 5716 5715 5714 5714 5713 5713 5712 5712 5712 5711 5710 5709 5708 5707 5706 5705 5704 5703 5702 5701 5701 5700 5700 5699 5698 5697 5695 5694 5692 5690 5688 5685
5739 5737 5734 5731 5729 5726 5724 5722 5719 5717 5715 5714 5713 5711 5711 5710 5710 5710 5710 5710 5709 5709 5708 5708 5706 5705 5704 5703 5702 5702 5701 5700 5700 5699 5699 5698 5697 5695 5694 5693 5691 5689 5686 5684
5732 5730 5728 5725 5723 5721 5718 5716 5714 5713 5711 5710 5709 5708 5708 5707 5707 5707 5707 5707 5707 5707 5706 5706 5705 5703 5702 5702 5701 5701 5700 5699 5699 5698 5698 5697 5696 5694 5693 5691 5689 5687 5685 5682
5725 5723 5721 5719 5717 5715 5713 5712 5710 5709 5707 5706 5705 5705 5705 5705 5705 5705 5705 5705 5705 5705 5704 5704 5703 5702 5701 5700 5700 5700 5700 5699 5699 5698 5697 5696 5695 5693 5692 5690 5688 5685 5683 5680
5718 5716 5715 5713 5712 5710 5708 5707 5706 5705 5704 5703 5702 5702 5702 5702 5702 5703 5703 5703 5703 5703 5702 5702 5701 5701 5700 5700 5700 5700 5700 5699 5698 5697 5697 5696 5694 5692 5690 5688 5686 5683 5681 5678
5711 5710 5709 5707 5706 5705 5704 5703 5702 5701 5700 5700 5699 5699 5699 5699 5700 5700 5700 5700 5701 5701 5700 5700 5700 5700 5700 5699 5699 5699 5699 5698 5698 5697 5696 5695 5693 5691 5689 5687 5685 5682 5679 5676
5704 5703 5702 5701 5700 5700 5699 5698 5697 5697 5697 5696 5696 5696 5696 5697 5697 5698 5698 5698 5698 5699 5699 5699 5699 5699 5699 5699 5699 5699 5698 5698 5697 5696 5695 5693 5692 5690 5688 5685 5683 5680 5677 5673
5697 5696 5696 5695 5695 5695 5694 5694 5693 5693 5692 5692 5692 5693 5693 5694 5695 5695 5696 5696 5696 5697 5697 5697 5698 5698 5699 5698 5698 5698 5698 5697 5696 5695 5694 5692 5691 5689 5686 5684 5681 5678 5675 5671
5690 5690 5690 5689 5690 5689 5689 5689 5689 5688 5688 5688 5689 5690 5691 5692 5693 5693 5694 5694 5695 5695 5695 5696 5696 5697 5697 5697 5697 5697 5697 5696 5695 5694 5692 5691 5689 5687 5684 5682 5679 5676 5672 5669
5684 5683 5683 5684 5684 5684 5684 5684 5684 5684 5685 5685 5686 5687 5688 5689 5690 5691 5692 5693 5694 5694 5694 5695 5695 5696 5696 5696 5696 5696 5695 5695 5694 5693 5691 5690 5688 5685 5683 5680 5677 5674 5671 5667
5677 5677 5677 5678 5678 5679 5679 5679 5679 5680 5681 5682 5683 5684 5686 5687 5688 5689 5690 5691 5692 5693 5693 5694 5694 5695 5695 5695 5695 5695 5695 5694 5693 5691 5690 5688 5686 5684 5681 5678 5675 5672 5669 5665
5670 5671 5671 5672 5673 5673 5674 5675 5675 5676 5677 5679 5680 5682 5684 5685 5686 5687 5689 5690 5691 5691 5692 5693 5694 5694 5694 5694 5694 5694 5693 5693 5691 5690 5689 5687 5685 5682 5680 5677 5674 5670 5667 5663
5664 5665 5666 5667 5668 5669 5670 5671 5672 5673 5675 5676 5678 5680 5682 5683 5685 5686 5687 5689 5690 5690 5691 5692 5693 5693 5693 5693 5693 5692 5692 5691 5690 5689 5687 5685 5683 5681 5678 5675 5672 5669 5665 5661
5658 5659 5661 5662 5663 5664 5665 5667 5668 5670 5672 5674 5676 5678 5680 5681 5683 5685 5686 5687 5688 5689 5690 5691 5692 5692 5692 5692 5692 5691 5690 5690 5689 5687 5686 5684 5682 5679 5677 5674 5670 5667 5663 5659
5652 5654 5655 5656 5658 5660 5662 5663 5666 5668 5670 5672 5674 5676 5678 5680 5682 5683 5684 5686 5687 5688 5689 5690 5691 5691 5691 5691 5690 5690 5689 5688 5687 5686 5684 5682 5680 5678 5675 5672 5669 5665 5661 5657
5646 5648 5650 5652 5654 5656 5658 5660 5663 5665 5668 5670 5672 5674 5676 5678 5680 5681 5683 5684 5686 5687 5688 5689 5689 5690 5690 5689 5689 5688 5688 5687 5686 5685 5683 5681 5679 5677 5674 5670 5667 5663 5659 5655